• In Netherlands
  • List of Countries
  • For 7 days
  • Water Temperature
  • Satellite Maps
  • Weather Map
  • Weather Widgets
  • user-avatar
    Login

    Hourly Weather Ali Bayramli

    Today, 21 September, Thursday

    Time Temperature Precipitation Wind Pressure Humidity
    00:00 +26°C° 0 mm 1 mps 758 mmHg 61%
    01:00 +26°C° 0 mm 1 mps 758 mmHg 61%
    02:00 +25°C° 0 mm 1 mps 758 mmHg 61%
    03:00 +25°C° 0 mm 1 mps 758 mmHg 64%
    04:00 +25°C° 0 mm 1 mps 758 mmHg 65%
    05:00 +25°C° 0 mm 1 mps 758 mmHg 65%
    06:00 +25°C° 0 mm 1 mps 758 mmHg 65%
    07:00 +27°C° 0 mm 1 mps 758 mmHg 58%
    08:00 +29°C° 0 mm 1 mps 758 mmHg 51%
    09:00 +31°C° 0 mm 1 mps 758 mmHg 39%
    10:00 +32°C° 0 mm 2 mps 758 mmHg 35%
    11:00 +34°C° 0 mm 2 mps 758 mmHg 30%
    12:00 +36°C° 0 mm 3 mps 758 mmHg 26%
    13:00 +36°C° 0 mm 4 mps 758 mmHg 25%
    14:00 +36°C° 0 mm 4 mps 757 mmHg 24%
    15:00 +36°C° 0 mm 5 mps 757 mmHg 23%
    16:00 +34°C° 0 mm 5 mps 757 mmHg 27%
    17:00 +33°C° 0 mm 5 mps 757 mmHg 31%
    18:00 +30°C° 0 mm 4 mps 757 mmHg 35%
    19:00 +29°C° 0 mm 4 mps 757 mmHg 40%
    20:00 +28°C° 0 mm 3 mps 757 mmHg 46%
    21:00 +27°C° 0 mm 3 mps 757 mmHg 52%
    22:00 +27°C° 0 mm 2 mps 757 mmHg 54%
    23:00 +27°C° 0 mm 2 mps 757 mmHg 56%

    Tomorrow, 22 September, Friday

    Time Temperature Precipitation Wind Pressure Humidity
    00:00 +26°C° 0 mm 2 mps 757 mmHg 58%
    01:00 +26°C° 0 mm 2 mps 757 mmHg 59%
    02:00 +26°C° 0 mm 2 mps 757 mmHg 60%
    03:00 +25°C° 0 mm 2 mps 757 mmHg 61%
    04:00 +25°C° 0 mm 1 mps 757 mmHg 62%
    05:00 +25°C° 0 mm 1 mps 757 mmHg 63%
    06:00 +25°C° 0 mm 1 mps 757 mmHg 64%
    07:00 +26°C° 0 mm 1 mps 757 mmHg 58%
    08:00 +28°C° 0 mm 2 mps 757 mmHg 52%
    09:00 +30°C° 0 mm 2 mps 757 mmHg 46%
    10:00 +31°C° 0 mm 2 mps 757 mmHg 42%
    11:00 +33°C° 0 mm 3 mps 756 mmHg 37%
    12:00 +35°C° 0 mm 3 mps 756 mmHg 32%
    13:00 +35°C° 0 mm 4 mps 756 mmHg 31%
    14:00 +35°C° 0 mm 5 mps 755 mmHg 30%
    15:00 +35°C° 0 mm 6 mps 755 mmHg 28%
    16:00 +34°C° 0 mm 5 mps 755 mmHg 33%
    17:00 +32°C° 0 mm 5 mps 755 mmHg 38%
    18:00 +30°C° 0 mm 5 mps 755 mmHg 42%
    19:00 +29°C° 0 mm 4 mps 756 mmHg 48%
    20:00 +28°C° 0 mm 3 mps 756 mmHg 54%
    21:00 +27°C° 0 mm 3 mps 756 mmHg 60%
    22:00 +27°C° 0 mm 3 mps 757 mmHg 61%
    23:00 +27°C° 0 mm 2 mps 757 mmHg 63%

    Day after tomorrow, 23 September, Saturday

    Time Temperature Precipitation Wind Pressure Humidity
    00:00 +26°C° 0 mm 2 mps 757 mmHg 64%
    01:00 +26°C° 0 mm 2 mps 757 mmHg 64%
    02:00 +26°C° 0 mm 2 mps 757 mmHg 64%
    03:00 +25°C° 0 mm 2 mps 758 mmHg 64%
    04:00 +25°C° 0 mm 1 mps 758 mmHg 64%
    05:00 +25°C° 0 mm 1 mps 758 mmHg 63%
    06:00 +25°C° 0 mm 1 mps 758 mmHg 62%
    07:00 +27°C° 0 mm 1 mps 759 mmHg 54%
    08:00 +28°C° 0 mm 2 mps 759 mmHg 46%
    09:00 +30°C° 0 mm 2 mps 759 mmHg 37%
    10:00 +31°C° 0 mm 3 mps 759 mmHg 32%
    11:00 +34°C° 0 mm 3 mps 759 mmHg 26%
    12:00 +35°C° 0 mm 4 mps 759 mmHg 21%
    13:00 +35°C° 0 mm 5 mps 759 mmHg 21%
    14:00 +35°C° 0 mm 6 mps 759 mmHg 21%
    15:00 +35°C° 0 mm 7 mps 759 mmHg 21%
    16:00 +33°C° 0 mm 7 mps 759 mmHg 25%
    17:00 +32°C° 0 mm 7 mps 759 mmHg 30%
    18:00 +30°C° 0 mm 7 mps 760 mmHg 34%
    19:00 +29°C° 0 mm 7 mps 760 mmHg 38%
    20:00 +28°C° 0 mm 7 mps 760 mmHg 43%
    21:00 +27°C° 0 mm 8 mps 761 mmHg 47%
    22:00 +27°C° 0 mm 7 mps 761 mmHg 50%
    23:00 +26°C° 0 mm 7 mps 761 mmHg 52%

    24 September, Sunday

    Time Temperature Precipitation Wind Pressure Humidity
    00:00 +26°C° 0 mm 7 mps 761 mmHg 55%
    01:00 +24°C° 0 mm 6 mps 761 mmHg 58%
    02:00 +23°C° 0 mm 6 mps 761 mmHg 61%
    03:00 +23°C° 0 mm 5 mps 761 mmHg 64%
    04:00 +23°C° 0 mm 5 mps 762 mmHg 66%
    05:00 +22°C° 0 mm 5 mps 762 mmHg 69%
    06:00 +22°C° 0 mm 4 mps 762 mmHg 71%
    07:00 +23°C° 0 mm 4 mps 763 mmHg 64%
    08:00 +26°C° 0 mm 4 mps 763 mmHg 56%
    09:00 +27°C° 0 mm 4 mps 763 mmHg 49%
    10:00 +29°C° 0 mm 4 mps 763 mmHg 44%
    11:00 +30°C° 0 mm 4 mps 763 mmHg 40%
    12:00 +32°C° 0 mm 4 mps 763 mmHg 35%
    13:00 +32°C° 0 mm 5 mps 763 mmHg 36%
    14:00 +32°C° 0 mm 6 mps 762 mmHg 37%
    15:00 +32°C° 0 mm 7 mps 762 mmHg 38%
    16:00 +29°C° 0 mm 7 mps 762 mmHg 43%
    17:00 +28°C° 0 mm 7 mps 763 mmHg 48%
    18:00 +27°C° 0 mm 7 mps 763 mmHg 53%
    19:00 +26°C° 0 mm 7 mps 763 mmHg 54%
    20:00 +26°C° 0 mm 6 mps 763 mmHg 56%
    21:00 +24°C° 0 mm 6 mps 764 mmHg 57%
    22:00 +25°C° 0 mm 5 mps 763 mmHg 58%
    23:00 +25°C° 0 mm 4 mps 763 mmHg 59%

    25 September, Monday

    Time Temperature Precipitation Wind Pressure Humidity
    00:00 +23°C° 0 mm 4 mps 763 mmHg 60%
    01:00 +24°C° 0 mm 3 mps 763 mmHg 62%
    02:00 +22°C° 0 mm 3 mps 763 mmHg 64%
    03:00 +22°C° 0 mm 3 mps 763 mmHg 65%
    04:00 +22°C° 0 mm 3 mps 763 mmHg 66%
    05:00 +23°C° 0 mm 2 mps 763 mmHg 67%
    06:00 +21°C° 0 mm 2 mps 763 mmHg 68%
    07:00 +24°C° 0 mm 2 mps 763 mmHg 61%
    08:00 +26°C° 0 mm 3 mps 763 mmHg 54%
    09:00 +27°C° 0 mm 3 mps 764 mmHg 47%
    10:00 +29°C° 0 mm 3 mps 763 mmHg 42%
    11:00 +30°C° 0 mm 3 mps 763 mmHg 37%
    12:00 +31°C° 0 mm 3 mps 763 mmHg 33%
    13:00 +32°C° 0 mm 4 mps 763 mmHg 32%
    14:00 +32°C° 0 mm 5 mps 762 mmHg 31%
    15:00 +33°C° 0 mm 7 mps 762 mmHg 30%
    16:00 +30°C° 0 mm 7 mps 762 mmHg 35%
    17:00 +29°C° 0 mm 8 mps 763 mmHg 40%
    18:00 +27°C° 0 mm 8 mps 763 mmHg 45%
    19:00 +26°C° 0 mm 8 mps 763 mmHg 48%
    20:00 +26°C° 0 mm 8 mps 763 mmHg 51%
    21:00 +24°C° 0 mm 8 mps 764 mmHg 55%
    22:00 +24°C° 0 mm 7 mps 764 mmHg 56%
    23:00 +23°C° 0 mm 7 mps 763 mmHg 57%

    26 September, Tuesday

    Time Temperature Precipitation Wind Pressure Humidity
    00:00 +23°C° 0 mm 6 mps 763 mmHg 58%
    01:00 +22°C° 0 mm 6 mps 763 mmHg 60%
    02:00 +22°C° 0 mm 6 mps 763 mmHg 61%
    03:00 +22°C° 0 mm 5 mps 763 mmHg 62%
    04:00 +21°C° 0 mm 5 mps 763 mmHg 64%
    05:00 +21°C° 0 mm 5 mps 763 mmHg 65%
    06:00 +21°C° 0 mm 4 mps 763 mmHg 67%
    07:00 +22°C° 0 mm 4 mps 763 mmHg 61%
    08:00 +23°C° 0 mm 5 mps 763 mmHg 56%
    09:00 +26°C° 0 mm 5 mps 763 mmHg 50%
    10:00 +26°C° 0 mm 5 mps 763 mmHg 48%
    11:00 +27°C° 0 mm 5 mps 763 mmHg 45%
    12:00 +28°C° 0 mm 5 mps 762 mmHg 42%
    13:00 +28°C° 0 mm 5 mps 762 mmHg 42%
    14:00 +28°C° 0 mm 5 mps 761 mmHg 42%
    15:00 +28°C° 0 mm 5 mps 761 mmHg 42%
    16:00 +27°C° 0 mm 5 mps 761 mmHg 46%
    17:00 +26°C° 0 mm 5 mps 761 mmHg 50%
    18:00 +25°C° 0 mm 5 mps 761 mmHg 54%
    19:00 +23°C° 0 mm 5 mps 761 mmHg 55%
    20:00 +23°C° 0 mm 5 mps 761 mmHg 57%
    21:00 +23°C° 0 mm 4 mps 761 mmHg 59%
    22:00 +23°C° 0 mm 4 mps 761 mmHg 60%
    23:00 +22°C° 0 mm 4 mps 761 mmHg 61%
    Show more